EW5196 Weather Reports


time (UTC)temp
F
wind
direction
speed
knots
gust
knots
rain 1hr
in
rain 24hr
in
rain mn
in
humidity
%
barometer
mb
20260904195918 93 272 0.0 0.9 0.00 0.00 0.00 57 1013.4
20260904195415 93 260 0.0 0.9 0.00 0.00 0.00 58 1013.5
20260904194910 93 247 0.0 0.9 0.00 0.00 0.00 58 1013.6
20260904194410 94 229 0.0 0.9 0.00 0.00 0.00 56 1013.8
20260904193905 95 254 0.0 0.9 0.00 0.00 0.00 55 1013.8
20260904193400 95 230 1.7 1.7 0.00 0.00 0.00 53 1013.6
20260904192855 96 330 1.7 1.7 0.00 0.00 0.00 50 1013.6
20260904192351 98 2 1.7 1.7 0.00 0.00 0.00 48 1013.7
20260904191847 98 239 0.9 4.3 0.00 0.00 0.00 47 1013.8
20260904191344 99 258 2.6 3.5 0.00 0.00 0.00 48 1013.8
20260904190840 98 245 1.7 3.5 0.00 0.00 0.00 49 1014.1
20260904190335 98 305 0.9 2.6 0.00 0.00 0.00 49 1013.9
20260904185832 98 163 3.5 3.5 0.00 0.00 0.00 49 1014.0
20260904185327 98 263 1.7 2.6 0.00 0.00 0.00 48 1014.3
20260904184826 96 262 1.7 2.6 0.00 0.00 0.00 50 1014.5
20260904184321 96 332 1.7 1.7 0.00 0.00 0.00 51 1014.6
20260904183817 96 283 0.9 1.7 0.00 0.00 0.00 51 1014.6
20260904183312 97 128 0.9 3.5 0.00 0.00 0.00 51 1014.7
20260904182807 97 167 0.9 2.6 0.00 0.00 0.00 50 1014.9
20260904182306 97 350 0.9 2.6 0.00 0.00 0.00 50 1014.8
20260904181758 96 244 1.7 5.2 0.00 0.00 0.00 52 1014.9
20260904181257 95 228 2.6 4.3 0.00 0.00 0.00 52 1014.9
20260904180753 95 211 4.3 5.2 0.00 0.00 0.00 52 1015.0
20260904180248 95 271 1.7 5.2 0.00 0.00 0.00 53 1015.1
20260904175747 95 211 3.5 4.3 0.00 0.00 0.00 53 1015.1
20260904175245 95 252 1.7 2.6 0.00 0.00 0.00 53 1015.2
20260904174741 95 199 1.7 3.5 0.00 0.00 0.00 52 1015.6
20260904174237 95 256 2.6 7.0 0.00 0.00 0.00 52 1015.4
20260904173733 95 225 0.9 5.2 0.00 0.00 0.00 52 1015.6
20260904173232 95 178 1.7 4.3 0.00 0.00 0.00 50 1015.6
20260904172729 95 238 2.6 4.3 0.00 0.00 0.00 50 1015.7
20260904172227 95 195 1.7 3.5 0.00 0.00 0.00 52 1015.8
20260904171717 94 298 3.5 4.3 0.00 0.00 0.00 51 1015.7
20260904171212 94 272 0.0 3.5 0.00 0.00 0.00 53 1015.7
20260904170709 94 234 1.7 2.6 0.00 0.00 0.00 54 1015.5
20260904170204 94 123 1.7 2.6 0.00 0.00 0.00 53 1015.7
20260904165703 94 230 2.6 2.6 0.00 0.00 0.00 53 1015.8
20260904165203 94 222 2.6 3.5 0.00 0.00 0.00 54 1015.7
20260904164657 93 129 1.7 2.6 0.00 0.00 0.00 54 1015.8
20260904164152 93 295 0.0 1.7 0.00 0.00 0.00 56 1015.6
20260904163649 93 210 2.6 3.5 0.00 0.00 0.00 53 1015.7
20260904163144 92 265 0.0 2.6 0.00 0.00 0.00 56 1015.7
20260904162643 92 169 1.7 3.5 0.00 0.00 0.00 56 1015.9
20260904162138 92 196 2.6 4.3 0.00 0.00 0.00 55 1015.9
20260904161633 92 255 0.9 3.5 0.00 0.00 0.00 55 1016.0
20260904161128 93 237 0.0 2.6 0.00 0.00 0.00 58 1015.8
20260904160624 92 254 0.0 2.6 0.00 0.00 0.00 57 1016.1
20260904160119 92 247 2.6 5.2 0.00 0.00 0.00 56 1016.2
20260904155614 92 201 1.7 2.6 0.00 0.00 0.00 58 1016.3
20260904155108 92 178 3.5 5.2 0.00 0.00 0.00 58 1016.3
20260904154601 92 287 0.0 3.5 0.00 0.00 0.00 58 1016.2
20260904154056 92 247 1.7 4.3 0.00 0.00 0.00 58 1016.3
20260904153555 91 221 1.7 3.5 0.00 0.00 0.00 59 1016.2
20260904153053 91 161 2.6 3.5 0.00 0.00 0.00 59 1016.2
20260904152548 91 111 1.7 2.6 0.00 0.00 0.00 61 1016.3
20260904152043 91 122 2.6 3.5 0.00 0.00 0.00 60 1016.1
20260904151538 91 236 0.0 0.9 0.00 0.00 0.00 63 1016.2
20260904151037 91 250 0.0 2.6 0.00 0.00 0.00 61 1016.0
20260904150532 91 260 0.0 1.7 0.00 0.00 0.00 63 1016.2
20260904150027 90 160 0.0 1.7 0.00 0.00 0.00 63 1016.1
20260904145527 90 12 0.0 1.7 0.00 0.00 0.00 64 1016.3
20260904145022 90 187 0.9 3.5 0.00 0.00 0.00 65 1016.2
20260904144518 89 231 0.9 3.5 0.00 0.00 0.00 64 1016.1
20260904144014 89 210 0.9 2.6 0.00 0.00 0.00 64 1015.9
20260904143509 89 184 0.0 6.1 0.00 0.00 0.00 64 1016.1
20260904143006 89 264 3.5 4.3 0.00 0.00 0.00 64 1016.1
20260904142502 89 169 0.9 2.6 0.00 0.00 0.00 63 1016.2
20260904142002 89 151 1.7 2.6 0.00 0.00 0.00 66 1016.1
20260904141456 89 228 0.9 2.6 0.00 0.00 0.00 67 1015.9
20260904140953 88 119 0.0 0.9 0.00 0.00 0.00 68 1016.1
20260904140452 88 109 0.0 2.6 0.00 0.00 0.00 69 1016.1
20260904135951 87 166 1.7 1.7 0.00 0.00 0.00 70 1016.3
20260904135446 86 163 0.0 1.7 0.00 0.00 0.00 72 1016.4
20260904134943 85 230 1.7 2.6 0.00 0.00 0.00 74 1016.1
20260904134442 84 247 0.9 2.6 0.00 0.00 0.00 74 1016.2
20260904133937 84 232 1.7 2.6 0.00 0.00 0.00 76 1016.1
20260904133432 84 243 2.6 2.6 0.00 0.00 0.00 78 1016.0
20260904132928 83 262 1.7 1.7 0.00 0.00 0.00 78 1015.7
20260904132423 83 146 1.7 1.7 0.00 0.00 0.00 79 1015.6
20260904131922 82 206 0.0 0.9 0.00 0.00 0.00 80 1015.9
20260904131417 82 163 0.9 1.7 0.00 0.00 0.00 80 1016.1
20260904130913 81 167 0.9 3.5 0.00 0.00 0.00 82 1015.9
20260904130412 81 165 0.0 1.7 0.00 0.00 0.00 83 1015.9
20260904125907 80 147 1.7 2.6 0.00 0.00 0.00 84 1016.0
20260904125404 80 197 0.0 0.9 0.00 0.00 0.00 85 1015.7
20260904124903 80 140 0.0 1.7 0.00 0.00 0.00 85 1015.8
20260904124359 79 187 0.0 1.7 0.00 0.00 0.00 87 1015.8
20260904123854 79 155 0.9 1.7 0.00 0.00 0.00 88 1016.2
20260904123349 78 60 0.0 2.6 0.00 0.00 0.00 90 1015.9
20260904122845 78 154 0.0 0.9 0.00 0.00 0.00 91 1015.6
20260904122344 78 286 0.0 1.7 0.00 0.00 0.00 91 1015.8
20260904121839 77 68 0.0 1.7 0.00 0.00 0.00 91 1016.2
20260904121336 77 159 0.0 0.9 0.00 0.00 0.00 92 1016.3
20260904120832 76 189 0.0 2.6 0.00 0.00 0.00 95 1016.2
20260904120327 75 244 0.0 0.9 0.00 0.00 0.00 96 1016.2
20260904115822 75 154 0.0 0.0 0.00 0.00 0.00 97 1016.0
20260904115317 75 175 0.0 0.9 0.00 0.00 0.00 97 1016.0
20260904114818 75 110 0.0 1.7 0.00 0.00 0.00 97 1015.8
20260904114312 75 175 0.9 0.9 0.00 0.00 0.00 97 1015.9
20260904113807 74 67 0.0 0.0 0.00 0.00 0.00 98 1016.0
20260904113306 74 272 0.0 0.0 0.00 0.00 0.00 98 1015.6
20260904112801 74 154 0.0 0.0 0.00 0.00 0.00 98 1015.9
20260904112257 74 119 0.0 1.7 0.00 0.00 0.00 98 1016.1
20260904111752 74 242 0.0 0.0 0.00 0.00 0.00 98 1015.9
20260904111248 73 147 0.0 0.9 0.00 0.00 0.00 98 1016.0
20260904110744 73 24 0.0 0.9 0.00 0.00 0.00 98 1015.9
20260904110243 73 72 0.9 1.7 0.00 0.00 0.00 97 1015.9
20260904105738 73 147 0.0 0.9 0.00 0.00 0.00 97 1016.0
20260904105232 73 79 0.9 1.7 0.00 0.00 0.00 97 1015.9
20260904104728 73 128 1.7 1.7 0.00 0.00 0.00 97 1015.8
20260904104223 73 184 0.9 1.7 0.00 0.00 0.00 97 1015.7
20260904103720 73 151 0.9 1.7 0.00 0.00 0.00 97 1015.8
20260904103215 74 153 0.9 1.7 0.00 0.00 0.00 97 1015.7
20260904102711 74 161 0.9 1.7 0.00 0.00 0.00 97 1016.0
20260904102206 74 173 0.9 1.7 0.00 0.00 0.00 97 1015.7
20260904101702 74 153 0.0 1.7 0.00 0.00 0.00 97 1015.7
20260904101158 74 149 0.0 0.9 0.00 0.00 0.00 97 1015.7
20260904100654 74 172 0.0 0.0 0.00 0.00 0.00 96 1015.8
20260904100149 74 179 0.9 1.7 0.00 0.00 0.00 96 1015.7
20260904095649 74 155 0.9 0.9 0.00 0.00 0.00 96 1015.8
20260904095149 74 143 0.0 0.0 0.00 0.00 0.00 96 1015.9
20260904094644 74 143 0.0 0.0 0.00 0.00 0.00 96 1015.7
20260904094139 74 143 0.0 0.9 0.00 0.00 0.00 96 1015.8
20260904093636 74 153 0.9 1.7 0.00 0.00 0.00 96 1015.8
20260904093135 75 158 0.9 1.7 0.00 0.00 0.00 96 1015.9
20260904092632 75 148 0.0 1.7 0.00 0.00 0.00 95 1016.0
20260904092127 75 142 0.9 0.9 0.00 0.00 0.00 95 1016.0
20260904091623 75 154 0.0 0.9 0.00 0.00 0.00 95 1016.0
20260904091123 75 130 1.7 1.7 0.00 0.00 0.00 95 1016.1
20260904090618 75 146 0.0 0.9 0.00 0.00 0.00 94 1016.0
20260904090114 75 149 0.9 1.7 0.00 0.00 0.00 94 1016.0
20260904085609 75 176 0.0 1.7 0.00 0.00 0.00 94 1016.0
20260904085108 76 209 0.0 1.7 0.00 0.00 0.00 94 1016.2
20260904084604 76 227 0.9 0.9 0.00 0.00 0.00 94 1016.1
20260904084100 76 242 0.9 0.9 0.00 0.00 0.00 93 1016.1
20260904083556 76 159 0.0 0.9 0.00 0.00 0.00 93 1015.9
20260904083052 76 159 1.7 1.7 0.00 0.00 0.00 93 1015.8
20260904082547 76 148 0.0 0.9 0.00 0.00 0.00 93 1015.8
20260904082042 76 159 0.0 0.0 0.00 0.00 0.00 93 1015.9
20260904081537 76 153 0.0 1.7 0.00 0.00 0.00 92 1015.7
20260904081032 77 85 0.0 0.0 0.00 0.00 0.00 92 1015.4
20260904080528 77 121 1.7 1.7 0.00 0.00 0.00 91 1015.4
20260904080024 77 247 0.9 0.9 0.00 0.00 0.00 91 1015.6
20260904075520 77 92 0.0 0.0 0.00 0.00 0.00 91 1015.9
20260904075015 77 143 0.9 1.7 0.00 0.00 0.00 89 1015.7
20260904074514 77 217 0.0 0.9 0.00 0.00 0.00 89 1015.6
20260904074009 77 186 0.0 0.9 0.00 0.00 0.00 89 1015.7
20260904073504 77 193 1.7 2.6 0.00 0.00 0.00 90 1015.5
20260904073001 77 5 1.7 1.7 0.00 0.00 0.00 91 1015.3
20260904072456 78 131 0.9 1.7 0.00 0.00 0.00 90 1015.4
20260904071956 78 163 0.0 0.9 0.00 0.00 0.00 90 1015.4
20260904071451 78 132 0.0 0.9 0.00 0.00 0.00 88 1015.3
20260904070946 78 143 0.0 1.7 0.00 0.00 0.00 85 1015.4
20260904070444 79 159 0.0 0.0 0.00 0.00 0.00 86 1015.4
20260904065939 79 180 0.9 1.7 0.00 0.00 0.00 84 1015.3
20260904065435 79 158 1.7 1.7 0.00 0.00 0.00 83 1015.2
20260904064930 80 184 0.0 0.0 0.00 0.00 0.00 83 1015.5
20260904064427 80 200 1.7 1.7 0.00 0.00 0.00 82 1015.5
20260904063921 81 119 0.0 0.9 0.00 0.00 0.00 83 1015.5
20260904063418 81 145 0.0 1.7 0.00 0.00 0.00 78 1015.5
20260904062913 80 259 1.7 3.5 0.00 0.00 0.00 84 1015.7
20260904062409 80 147 0.0 0.9 0.00 0.00 0.00 84 1015.5
20260904061905 81 172 0.0 0.9 0.00 0.00 0.00 84 1015.8
20260904061401 82 247 0.9 4.3 0.00 0.00 0.00 81 1016.0
20260904060857 81 165 0.0 2.6 0.00 0.00 0.00 83 1016.2
20260904060352 81 252 0.9 4.3 0.00 0.00 0.00 84 1016.4
20260904055848 81 225 1.7 3.5 0.00 0.00 0.00 85 1016.2
20260904055342 81 239 0.0 2.6 0.00 0.00 0.00 85 1016.3
20260904054838 80 158 3.5 5.2 0.00 0.00 0.00 87 1016.8
20260904054334 79 225 0.0 0.9 0.00 0.00 0.00 87 1015.4
20260904053829 79 132 0.0 0.0 0.00 0.00 0.00 88 1015.9
20260904053329 79 184 0.0 1.7 0.00 0.00 0.00 89 1015.5
20260904052825 79 80 0.0 0.0 0.00 0.00 0.00 91 1015.8
20260904052321 79 147 0.0 0.0 0.00 0.00 0.00 90 1015.6
20260904051817 79 154 0.0 0.0 0.00 0.00 0.00 90 1015.7
20260904051313 79 172 0.0 0.9 0.00 0.00 0.00 89 1015.8
20260904050807 79 143 0.0 0.9 0.00 0.00 0.00 88 1015.6
20260904050305 79 140 0.0 0.9 0.00 0.00 0.00 89 1015.9
20260904045804 79 134 0.0 0.9 0.00 0.00 0.00 91 1015.9
20260904045259 79 155 0.0 0.9 0.00 0.00 0.00 91 1016.1
20260904044754 79 173 0.9 1.7 0.00 0.00 0.00 92 1016.0
20260904044251 79 177 0.9 1.7 0.00 0.00 0.00 93 1015.9
20260904043746 79 172 0.0 0.9 0.00 0.00 0.00 93 1015.9
20260904043243 79 194 0.0 0.9 0.00 0.00 0.00 93 1015.9
20260904042737 79 184 0.0 0.9 0.00 0.00 0.00 93 1015.6
20260904042234 79 153 0.9 1.7 0.00 0.00 0.00 94 1015.8
20260904041733 79 161 0.0 0.9 0.00 0.00 0.00 94 1015.7
20260904041230 79 172 0.0 0.9 0.00 0.00 0.00 94 1016.0
20260904040725 79 165 0.9 0.9 0.00 0.00 0.00 93 1016.0
20260904040221 80 165 0.9 0.9 0.00 0.00 0.00 93 1015.9
20260904035717 80 163 0.9 1.7 0.00 0.00 0.00 93 1015.9
20260904035212 79 270 0.0 1.7 0.00 0.00 0.00 94 1016.0
20260904034710 79 192 0.0 0.9 0.00 0.00 0.00 94 1016.1
20260904034207 79 147 0.0 0.0 0.00 0.00 0.00 94 1016.0
20260904033703 79 165 0.0 0.9 0.00 0.00 0.00 94 1016.2
20260904033159 79 160 0.0 0.9 0.00 0.00 0.00 93 1016.3
20260904032655 79 154 0.0 0.0 0.00 0.00 0.00 93 1016.5
20260904032154 79 158 0.9 0.9 0.00 0.00 0.00 93 1016.5
20260904031648 79 156 0.0 0.0 0.00 0.00 0.00 93 1016.5
20260904031143 79 156 0.0 0.9 0.00 0.00 0.00 93 1016.4
20260904030639 80 133 0.9 0.9 0.00 0.00 0.00 93 1016.2
20260904030134 80 177 0.0 0.9 0.00 0.00 0.00 92 1016.3
20260904025630 80 165 0.0 0.0 0.00 0.00 0.00 92 1016.2
20260904025125 80 168 0.0 0.9 0.00 0.00 0.00 92 1016.4
20260904024620 80 232 0.0 0.9 0.00 0.00 0.00 92 1016.1
20260904024116 80 225 0.0 0.9 0.00 0.00 0.00 93 1016.3
20260904023612 80 236 0.9 0.9 0.00 0.00 0.00 93 1016.1
20260904023107 80 164 0.0 0.9 0.00 0.00 0.00 92 1016.0
20260904022602 80 172 0.0 0.9 0.00 0.00 0.00 92 1016.0
20260904022059 80 147 0.0 0.0 0.00 0.00 0.00 92 1016.1
20260904021554 80 203 0.0 0.9 0.00 0.00 0.00 92 1016.0
20260904021049 80 126 0.9 0.9 0.00 0.00 0.00 93 1016.0
20260904020544 80 160 0.0 1.7 0.00 0.00 0.00 93 1016.0
20260904020039 80 133 0.0 0.9 0.00 0.00 0.00 92 1016.0
20260904015533 80 147 0.0 0.9 0.00 0.00 0.00 92 1016.1
20260904015032 80 172 0.0 0.0 0.00 0.00 0.00 92 1016.1
20260904014526 80 134 0.0 0.0 0.00 0.00 0.00 91 1016.5
20260904014022 80 154 0.0 0.0 0.00 0.00 0.00 91 1016.2
20260904013518 80 154 0.0 0.0 0.00 0.00 0.00 91 1016.4
20260904013015 80 160 0.0 0.9 0.00 0.00 0.00 91 1016.4
20260904012514 80 154 0.0 0.0 0.00 0.00 0.00 91 1016.4
20260904012009 81 141 0.9 0.9 0.00 0.00 0.00 90 1016.5
20260904011503 81 159 0.0 0.0 0.00 0.00 0.00 90 1016.4
20260904010958 81 187 0.0 0.0 0.00 0.00 0.00 90 1016.5
20260904010455 81 154 0.0 0.0 0.00 0.00 0.00 89 1016.7
20260904005955 81 159 0.0 0.9 0.00 0.00 0.00 88 1016.8
20260904005450 82 135 0.9 0.9 0.00 0.00 0.00 88 1016.8
20260904004945 82 187 0.0 0.9 0.00 0.00 0.00 88 1016.7
20260904004442 82 211 0.0 1.7 0.00 0.00 0.00 88 1016.7
20260904003941 82 186 0.0 0.9 0.00 0.00 0.00 88 1016.8
20260904003437 82 160 0.0 0.9 0.00 0.00 0.00 88 1016.7
20260904002932 82 202 0.0 0.9 0.00 0.00 0.00 88 1016.7
20260904002429 83 182 0.0 0.9 0.00 0.00 0.00 87 1016.6
20260904001927 83 184 0.0 0.0 0.00 0.00 0.00 87 1016.3
20260904001423 83 159 0.0 0.9 0.00 0.00 0.00 86 1016.2
20260904000918 83 172 0.0 0.9 0.00 0.00 0.00 86 1016.4
20260904000418 83 198 0.0 0.9 0.00 0.00 0.00 86 1016.3
20260903235913 83 203 0.9 0.9 0.00 0.00 0.00 86 1016.1
20260903235409 84 165 0.0 0.0 0.00 0.00 0.00 86 1015.9
20260903234908 84 157 0.0 0.9 0.00 0.00 0.00 85 1016.0
20260903234404 84 172 0.0 0.9 0.00 0.00 0.00 85 1015.6
20260903233900 85 169 0.0 0.9 0.00 0.00 0.00 84 1015.5
20260903233356 85 215 0.0 1.7 0.00 0.00 0.00 83 1015.9
20260903232855 85 219 0.9 1.7 0.00 0.00 0.00 83 1015.8
20260903232351 86 188 0.0 0.9 0.00 0.00 0.00 81 1015.9
20260903231850 87 172 0.0 0.9 0.00 0.00 0.00 80 1015.9
20260903231345 87 247 0.0 0.9 0.00 0.00 0.00 78 1015.9
20260903230841 87 227 0.9 1.7 0.00 0.00 0.00 76 1015.7
20260903230336 87 229 0.9 1.7 0.00 0.00 0.00 77 1015.5
20260903225832 87 259 0.9 0.9 0.00 0.00 0.00 78 1015.3
20260903225328 87 223 0.9 0.9 0.00 0.00 0.00 78 1015.6
20260903224824 87 225 0.0 0.9 0.00 0.00 0.00 77 1015.5
20260903224320 88 187 0.0 0.9 0.00 0.00 0.00 77 1015.6
20260903223816 87 225 0.0 0.0 0.00 0.00 0.00 75 1015.4
20260903223314 88 260 0.0 0.0 0.00 0.00 0.00 74 1015.3
20260903222809 88 187 0.0 0.9 0.00 0.00 0.00 75 1015.5
20260903222308 88 190 0.0 0.9 0.00 0.00 0.00 74 1015.5
20260903221803 89 247 0.0 0.9 0.00 0.00 0.00 69 1015.3
20260903221302 89 265 0.0 0.9 0.00 0.00 0.00 70 1015.5
20260903220801 90 230 0.0 0.9 0.00 0.00 0.00 69 1015.4
20260903220255 90 222 0.0 0.0 0.00 0.00 0.00 66 1015.7
20260903215753 91 172 0.0 0.0 0.00 0.00 0.00 64 1015.8
20260903215250 91 247 0.0 0.0 0.00 0.00 0.00 62 1015.8
20260903214748 91 260 0.0 0.0 0.00 0.00 0.00 62 1015.8
20260903214244 92 172 0.0 0.0 0.00 0.00 0.00 60 1015.8
20260903213738 92 184 0.0 0.0 0.00 0.00 0.00 60 1015.8
20260903213234 92 171 0.0 2.6 0.00 0.00 0.00 57 1015.6
20260903212730 93 246 0.0 0.9 0.00 0.00 0.00 57 1015.5
20260903212227 93 231 0.0 0.0 0.00 0.00 0.00 57 1015.3
20260903211725 94 260 0.0 0.0 0.00 0.00 0.00 56 1015.6
20260903211222 94 184 0.0 0.9 0.00 0.00 0.00 53 1015.7
20260903210718 95 317 0.0 0.9 0.00 0.00 0.00 53 1015.7
20260903210213 96 306 0.0 0.9 0.00 0.00 0.00 52 1016.0
20260903205713 96 290 0.9 2.6 0.00 0.00 0.00 51 1016.1
20260903205212 96 241 0.0 1.7 0.00 0.00 0.00 54 1015.9
20260903204707 95 185 0.0 1.7 0.00 0.00 0.00 55 1016.0
20260903204204 96 301 4.3 4.3 0.00 0.00 0.00 52 1016.1
20260903203659 96 137 0.0 1.7 0.00 0.00 0.00 55 1015.7
20260903203154 96 245 2.6 3.5 0.00 0.00 0.00 53 1016.0
20260903202648 96 339 0.9 2.6 0.00 0.00 0.00 54 1016.2
20260903202144 96 137 0.9 2.6 0.00 0.00 0.00 55 1016.0
20260903201638 96 247 2.6 3.5 0.00 0.00 0.00 52 1016.3
20260903201137 96 299 0.0 2.6 0.00 0.00 0.00 56 1016.3
20260903200633 95 177 0.9 1.7 0.00 0.00 0.00 54 1016.3
20260903200128 95 276 0.9 1.7 0.00 0.00 0.00 54 1016.4